Miscellaneous Local Product
Issued by NWS North Platte, NE

Home | Current Version | Previous Version | Text Only | Print | Product List | Glossary On
Versions: 1 2 3 4 5 6 7 8 9 10 11 12 13 14 15 16 17 18 19 20 21 22 23 24 25 26 27 28 29 30 31 32 33 34 35 36 37 38 39 40 41 42 43 44 45 46 47 48 49 50
000
AXUS43 KLBF 040910
MISLBF


WESTERN AND NORTH CENTRAL NEBRASKA HOURLY WEATHER ROUNDUP
NATIONAL WEATHER SERVICE NORTH PLATTE NE
300 AM CST WED MAR 04 2015

***STATIONS NOT REPORTING VARIABLES SUCH AS SKY/WEATHER OR
PRESSURE ARE PROVIDED BY THE NEBRASKA DEPARTMENT OF
ROADS...RAWS...AND APRS NETWORKS...AND ARE NOT UNDER
NATIONAL WEATHER SERVICE QUALITY CONTROL***

...OBSERVATIONS IN AND NEAR THE EASTERN PANHANDLE OF NEBRASKA...

CITY           SKY/WX    TMP DP  RH WIND       PRES   REMARKS
PINE RIDGE     PTCLDY     0  -4  83 W6        30.11R WCI -12
CHADRON        PTCLDY     5  -2  72 SW8       30.14R WCI  -8
ALLIANCE       PTCLDY     1  -3  83 W8        30.07R WCI -13
SIDNEY         LGT SNOW  13   8  81 N16       30.06R WCI  -3
WHITECLAY        N/A     -3  -8  76 SE3         N/A
CRESCENT LAKE    N/A      9   2  73 NW7         N/A  WCI  -2
LISCO            N/A     18   3  52 W10         N/A  WCI   7
BIG SPRINGS      N/A     15  12  86 CALM        N/A
LEWELLEN         N/A     30  21  69 SW5         N/A  WCI  25
$$

...OBSERVATIONS IN NORTH CENTRAL NEBRASKA...

CITY           SKY/WX    TMP DP  RH WIND       PRES   REMARKS
VALENTINE      PTCLDY     5  -1  76 W6        30.12R WCI  -6
THEDFORD       CLOUDY    15   7  72 CALM      30.12S
AINSWORTH      PTCLDY     8   1  73 W6        30.11S WCI  -2
O`NEILL        PTCLDY    10   2  71 W7        30.14S WCI  -1
ORD            PTCLDY    11   3  70 NW7       30.14S WCI   0
BROKEN BOW     PTCLDY    14   9  80 NW8       30.13S WCI   3
BROWNLEE         N/A     10  -4  53 W8          N/A  WCI  -2
SPRINGVIEW       N/A      8  -1  66 CALM        N/A
BREWSTER         N/A     23   8  54 NW8         N/A  WCI  13
ROSE             N/A     17  10  75 CALM        N/A
NEWPORT          N/A     18  12  79 W6          N/A  WCI   9
SARGENT          N/A     14   9  81 W3          N/A
COMSTOCK         N/A     18  12  79 W6          N/A  WCI   9
CHAMBERS         N/A     12  -4  49 NW3         N/A
EWING            N/A     10   3  72 CALM        N/A
$$

...OBSERVATIONS IN SOUTHWEST NEBRASKA AND FAR NORTHEAST COLORADO...

CITY           SKY/WX    TMP DP  RH WIND       PRES   REMARKS
WRAY           LGT SNOW  17  15  90 N5        30.08R WCI  10
IMPERIAL       LGT SNOW  16  12  84 N3        30.10R FOG
OGALLALA       MOCLDY    14  10  83 NW5       30.11R WCI   6
NORTH PLATTE   MOCLDY    13   9  84 N5        30.13R WCI   5
MCCOOK         LGT SNOW  18  14  84 NE5       30.14R FOG     WCI  11
LEXINGTON      CLOUDY    15  12  87 NW6       30.14S WCI   7
PAXTON           N/A     16  13  86 CALM        N/A
BRADY            N/A     14  10  83 CALM        N/A
GOTHENBURG       N/A     16  12  82 NW3         N/A
CALLAWAY         N/A     12   9  87 N5          N/A  WCI   4
$$

...NORTH PLATTE AREA...

CITY           SKY/WX    TMP DP  RH WIND       PRES   REMARKS
AIRPORT        MOCLDY    13   9  84 N5        30.13R WCI   5
DOWNTOWN         N/A     13   9  82 CALM        N/A
$$

...SOME WEATHER OBSERVATIONS FROM AROUND THE REGION...

CITY           SKY/WX    TMP DP  RH WIND       PRES   REMARKS
DENVER         LGT SNOW  12  10  92 NE16      29.98R FOG     WCI  -5
LARAMIE        FLURRIES   0  -3  87 N9        29.88R WCI -15
CHEYENNE       LGT SNOW   5   0  79 N7        29.94R WCI  -7
SCOTTSBLUFF    MOCLDY     8   5  87 NW7       30.09S WCI  -3
RAPID CITY     CLEAR      1  -7  68 W3        30.08R
PIERRE         CLEAR      3  -4  72 SW12      30.11F WCI -13
WINNER         FAIR       5  -6  60 W10       30.13F WCI -10
SIOUX FALLS    CLEAR      2  -3  80 CALM      30.15S
OMAHA          LGT SNOW  17   9  70 N10       30.20S WCI   5
GRAND ISLAND   CLOUDY    16  13  88 NW6       30.16S WCI   7
KANSAS CITY    CLOUDY    20  10  65 N21       30.13S WCI   4
WICHITA        FLURRIES  26  15  63 N22G30    30.10R WCI  12
HAYS           CLOUDY    19   7  58 NE16      30.14S WCI   5
LIBERAL        CLOUDY    25  18  74 NE14      30.03S WCI  13
GOODLAND       LGT SNOW  17  14  88 NE7       30.06R FOG     WCI   8
$$



USA.gov is the U.S. government's official web portal to all federal, state and local government web resources and services.